Grand Forks AFB, ND

5:23 AM CDT on July 23, 2017 (GMT -0500)
Grand Forks Air Force Base

Weather History for KRDR - November, 2013

Change the Weather History Date:

Saturday, November 2, 2013

  Actual Average Record
Temperature  
Mean Temperature 40 °F -  
Max Temperature 53 °F 40 °F 64 °F (2005)
Min Temperature 28 °F 24 °F 8 °F (1996)
Degree Days  
Heating Degree Days 24    
Moisture  
Dew Point 32 °F    
Average Humidity 76    
Maximum Humidity 98    
Minimum Humidity 44    
Precipitation  
Precipitation 0.00 in - - ()
Sea Level Pressure  
Sea Level Pressure 30.01 in    
Wind  
Wind Speed 5 mph (West)    
Max Wind Speed 9 mph    
Max Gust Speed -    
Visibility 10 miles    
Events      
Averages and records for this station are not official NWS values.
T = Trace of Precipitation, MM = Missing Value Source: NWS Daily Summary

Daily Weather History Graph

Daily Weather History Graph

Search for Another Location

Airport or City:

Trip Planner

Search our weather history database for the weather conditions in past years. The results will help you decide how hot, cold, wet, or windy it might be!

Date:

Astronomy

Nov. 02, 2013 Rise Set
Actual Time 8:16 AM CDT 6:09 PM CDT
Civil Twilight 7:43 AM CDT 6:41 PM CDT
Nautical Twilight 7:07 AM CDT 7:18 PM CDT
Astronomical Twilight 6:30 AM CDT 7:54 PM CDT
Moon 7:12 AM CDT (11/2) 5:42 PM CDT (11/2)
Length of Visible Light 10h 57m
Length of Day
9h 52m
Waning Crescent, 1% of the Moon is Illuminated
Nov 2
Waning Crescent
Nov 3
New
Nov 9
First Quarter
Nov 17
Full
Nov 25
Last Quarter

Hourly Weather History & Observations

Time (CDT) Temp. Windchill Dew Point Humidity Pressure Visibility Wind Dir Wind Speed Gust Speed Precip Events Conditions
12:58 AM 29.3 °F 24.3 °F 28.0 °F 95% 29.96 in 10.0 mi NW 4.6 mph - N/A   Scattered Clouds
1:58 AM 33.1 °F - 31.3 °F 93% 29.97 in 10.0 mi SW 2.3 mph - N/A   Overcast
2:58 AM 32.7 °F - 31.6 °F 96% 29.98 in 10.0 mi WNW 2.3 mph - N/A   Overcast
3:58 AM 36.1 °F 30.6 °F 33.8 °F 91% 30.00 in 10.0 mi WNW 6.9 mph - N/A   Overcast
4:58 AM 37.2 °F 33.6 °F 34.0 °F 88% 30.01 in 10.0 mi NW 4.6 mph - N/A   Overcast
5:58 AM 37.4 °F 32.8 °F 33.8 °F 87% 30.02 in 10.0 mi NNW 5.8 mph - N/A   Overcast
6:58 AM 33.3 °F 30.2 °F 31.1 °F 92% 29.98 in 10.0 mi NW 3.5 mph - N/A   Clear
7:58 AM 29.8 °F 26.3 °F 29.3 °F 98% 29.98 in 10.0 mi NW 3.5 mph - N/A   Clear
8:58 AM 28.6 °F 23.5 °F 27.3 °F 95% 30.04 in 10.0 mi WNW 4.6 mph - N/A   Clear
9:58 AM 35.2 °F 30.3 °F 32.0 °F 88% 30.06 in 10.0 mi WNW 5.8 mph - N/A   Clear
10:58 AM 41.0 °F 37.1 °F 33.8 °F 76% 30.06 in 10.0 mi WNW 5.8 mph - N/A   Clear
11:58 AM 46.4 °F 41.9 °F 34.0 °F 62% 30.07 in 10.0 mi NW 9.2 mph - N/A   Clear
12:58 PM 47.7 °F - 34.5 °F 60% 30.06 in 10.0 mi NW 5.8 mph - N/A   Clear
1:58 PM 50.4 °F - 32.4 °F 50% 30.04 in 10.0 mi Variable 2.3 mph - N/A   Clear
2:58 PM 52.5 °F - 31.5 °F 45% 30.02 in 10.0 mi Variable 3.5 mph - N/A   Clear
3:58 PM 53.2 °F - 31.6 °F 44% 30.02 in 10.0 mi WSW 4.6 mph - N/A   Clear
4:58 PM 52.0 °F - 30.9 °F 45% 30.01 in 10.0 mi SW 5.8 mph - N/A   Clear
5:58 PM 48.0 °F - 30.9 °F 52% 29.99 in 10.0 mi SSW 3.5 mph - N/A   Clear
6:58 PM 39.2 °F 35.0 °F 30.2 °F 70% 30.00 in 10.0 mi South 5.8 mph - N/A   Clear
9:58 PM 34.2 °F 29.0 °F 29.1 °F 82% 29.99 in 10.0 mi SSW 5.8 mph - N/A   Clear
11:55 PM 35.6 °F 30.7 °F 32.0 °F 87% 29.93 in 10.0 mi South 5.8 mph - N/A   Clear